Pickle Lake, Ontario

Past 24 Hour Conditions

This table is a summary of hourly weather conditions for the past 24 hours. This summary includes the following parameters: temperature, humidity, dew point, wind speed and direction, air pressure, visibility and/or wind chill and humidex.
Date / Time
(EST)
Conditions Temp (°F) Humidity (%) Dew Point (°F) Wind (mph) Pressure (inches) Visibility (miles)
30 September 2014
5:00 N/A 36 92 34 WSW 7 30.2 N/A
4:00 N/A 37 91 35 W 7 30.2 N/A
3:00 N/A 37 89 34 WSW 8 30.2 N/A
2:00 N/A 37 88 34 WSW 9 30.2 N/A
1:00 N/A 38 87 34 WSW 10 30.2 N/A
00:00 N/A 38 86 34 SW 9 30.2 N/A
29 September 2014
23:00 N/A 37 87 33 SW 5 30.2 N/A
22:00 N/A 37 84 33 SW 7 30.2 N/A
21:00 N/A 38 84 33 SW 5 30.2 N/A
20:00 N/A 38 82 33 SW 7 30.3 N/A
19:00 N/A 38 79 32 SSW 7 30.3 N/A
18:00 N/A 39 79 33 SW 5 30.3 N/A
17:00 N/A 39 76 32 SW 6 30.3 N/A
16:00 N/A 39 75 32 S 6 30.3 N/A
15:00 N/A 40   77 33 S 6 30.3 N/A
14:00 N/A 39 75 31 SSE 6 30.4 N/A
13:00 N/A 39 74 31 ESE 6 30.4 N/A
12:00 N/A 37 80 32 SE 10 30.4 N/A
11:00 N/A 36 82 31 SE 13 30.4 N/A
10:00 N/A 35 87 32 ESE 9 30.4 N/A
9:00 N/A 34 89 31 ENE 6 30.4 N/A
8:00 N/A 33   92 31 E 7 30.4 N/A
7:00 N/A 33   94 31 E 7 30.4 N/A
6:00 N/A 33   95 31 ENE 3 30.4 N/A
5:00 N/A 33   94 32 E 6 30.4 N/A
N/A
Not available
 ↑ 
Highest temperature
 ↓ 
Lowest temperature

If you require additional historical weather information, please visit Climate Data Online.